Location: Deer Path Park
(40.5570°N, 74.8450°W)
Time: 07:32:23
(UTC-04:00)

Iridium 49 - Visible Passes

Search period start: 17 September 2014 00:00
Search period end: 27 September 2014 00:00
Orbit: 776 x 779 km, 86.4° (Epoch: 16 September)

Date Brightness Start Highest point End Pass type
(mag) Time Alt. Az. Time Alt. Az. Time Alt. Az.
17 Sep 8.4 21:14:01 10° NE 21:14:01 10° NE 21:14:06 10° NE visible
17 Sep 8.4 22:54:29 18° NNW 22:54:29 18° NNW 22:55:55 10° N visible
18 Sep 8.1 22:20:57 20° N 22:20:57 20° N 22:22:31 10° N visible
19 Sep 8.0 21:47:24 19° NNE 21:47:24 19° NNE 21:48:50 10° NNE visible
19 Sep 8.9 23:27:52 12° NW 23:27:52 12° NW 23:28:28 10° NNW visible
20 Sep 8.1 21:13:51 14° NE 21:13:51 14° NE 21:14:48 10° NNE visible
20 Sep 8.5 22:54:18 18° NNW 22:54:18 18° NNW 22:55:46 10° NNW visible
21 Sep 8.1 22:20:44 22° N 22:20:44 22° N 22:22:34 10° N visible
22 Sep 7.8 21:47:08 23° N 21:47:08 23° N 21:49:04 10° N visible
23 Sep 7.8 21:13:32 20° NNE 21:13:32 20° NNE 21:15:15 10° NNE visible
23 Sep 8.6 22:53:59 16° NW 22:53:59 16° NW 22:55:26 10° NNW visible
24 Sep 8.0 20:39:54 14° NE 20:39:54 14° NE 20:41:00 10° NNE visible
24 Sep 8.1 22:20:21 23° NNW 22:20:21 23° NNW 22:22:30 10° N visible
25 Sep 7.6 21:46:41 29° N 21:46:41 29° N 21:49:10 10° N visible
26 Sep 7.3 21:13:00 28° NNE 21:13:00 28° NNE 21:15:33 10° NNE visible
26 Sep 8.8 22:53:27 14° NW 22:53:27 14° NW 22:54:49 10° NW visible
